STARLINK-31663, 59576

Orbit data source: Space-Track

STARLINK-31663, 59576 is a payload satellite owned by SpaceX/Seattle (US) in LEO that was launched on Tue, 23 Apr 2024 UTC via an FALCON 9 launch vehicle from the Air Force Eastern Test Range (AFETR). Payload-class satellites include a variety of spacecraft equipped with specific instruments for various scientific and technological missions. These include communications satellites like Starlink; space stations such as the ISS; scientific satellites like the Hubble; Earth observation satellites from companies like Planet Labs, Umbra, and HawkEye 360; GPS; miniature CubeSats for education and research; and military/defense satellites.

Loading next visibility...
Identifier
59576, 2024-076N
Orbit
LEO
Last TLE update
6 hours ago
Origin
Manufacturer
SpaceX/Seattle
Mission
Operational spacecraft
Bus & Motor
STARLINK V2M, Unknown motor
Mass
730 kg wet, ~700 kg dry
Launch date (UTC)
2024-04-23 (1 year ago)
Launch vehicle
FALCON 9
Launch site
Air Force Eastern Test Range (AFETR)
Object type
Payload
Rocket body
Debris
Shape & HBR
Unknown
Radar Cross Section
Large (>1 m²)

Expand to show TLE details & history

TLE from 6 hours ago
0 STARLINK-31663
1 59576U 24076N   25182.17460268  .00000818  00000-0  39266-4 0  9990
2 59576  43.0050 349.6849 0001147 281.2283  78.8440 15.27569638 68038
Epoch: 2025-07-01T04:11Z
TLE epoch observation values (Epoch: 2025-07-01T04:11:25.671Z)
Latitude
-0.00001°
Longitude
7.35409°
Altitude
482.704 km
Speed
7.626 km/s
True Right ascension
23h 18m 44s
True Declination
0° 00' 00"
Sunlit
Object was in daylight at epoch
Visualization orbit readout
Latitude
11.97289°
Longitude
18.92674°
Altitude
482.155 km
Speed
7.627 km/s
Apparent Right ascension
03h 01m 38s
Apparent Declination
-38° 23' 09"
Sunlit
Object is in daylight
Visualization observer readout
Local Sidereal Time
22:11:07
Azimuth
129.942° SE
Elevation
-12.647°
Doppler factor
1
Orbital elements
Apogee altitude
485.812 km
Perigee altitude
484.237 km
Semi-major axis
6,863.161 km
Eccentricity
0.00011
Inclination
43.005°
RAAN
349.6849°
Arg. of periapsis
281.2283°
True anomaly
Unknown
Mean anomaly
78.844°
Eccentric anomaly
Unknown
Mean motion
3.8173 °/min
Orbital period
94.31 mins
BSTAR
0.000039266
Loading maneuver chart data...
Loading SW <> Apogee altitude chart data...
Loading historical data...
Loading historical data...
Loading historical data...
Loading historical data...
Loading historical data...
Loading historical data...
Loading historical data...

STARLINK-31663 Visibility forecast

Observer location: undefined°, undefined°

Span
Click to sort rows by Start time (UTC) header in descending order
Start Az.
Max El. time (UTC)
Max El. Az.
Max El.
End time (UTC)
End Az.
4 mins2025-07-01 13:47:39.473Z178.995° S2025-07-01 13:49:39.473Z141.478° SSE17.225°2025-07-01 13:51:39.473Z105.456° ESE
6 mins2025-07-01 15:25:39.473Z242.74° WSW2025-07-01 15:27:39.473Z220.117° SW42.089°2025-07-01 15:31:39.473Z73.46° E
6 mins2025-07-01 17:04:39.473Z284.06° WNW2025-07-01 17:07:39.473Z24.965° NE36.873°2025-07-01 17:10:39.473Z73.621° E
5 mins2025-07-01 18:44:39.473Z295.587° NW2025-07-01 18:46:39.473Z50.372° ENE42.895°2025-07-01 18:49:39.473Z98.823° ESE
4 mins2025-07-01 20:23:39.473Z254.707° W2025-07-01 20:25:39.473Z194.563° SSW27.604°2025-07-01 20:27:39.473Z153.679° SSE
|